Vorticity
nan nan nan nan nan nan nan nan nan nan nan nan nan nan nan nan nan nan nan nan nan nan nan nan nan nan nan nan nan nan nan nan nan nan nan nan nan nan nan nan nan nan nan nan
nan 8 12 9 8 11 4 5 6 17 18 6 11 12 10 12 12 9 6 9 8 7 12 12 9 8 7 6 5 7 7 7 6 7 8 9 10 9 9 10 10 9 7 nan
nan 2 8 7 4 11 11 6 10 10 10 10 6 13 11 7 11 13 9 9 11 7 7 10 9 8 7 7 7 7 7 6 7 6 6 7 7 10 10 10 9 9 9 nan
nan 12 6 5 10 12 5 9 14 8 10 11 5 9 7 12 9 7 9 9 8 6 8 12 9 7 8 6 7 8 8 7 8 7 7 8 6 7 8 8 9 10 9 nan
nan 11 13 10 11 8 4 11 17 14 8 9 6 13 6 10 15 14 10 8 10 10 10 10 8 8 6 8 7 6 7 7 8 7 7 6 7 7 9 9 9 9 9 nan
nan 4 13 8 10 7 11 11 9 12 10 5 12 7 8 8 8 12 18 11 8 8 9 11 9 9 8 9 8 7 7 6 8 8 8 8 7 6 6 8 9 9 9 nan
nan 9 10 11 7 8 12 9 7 4 12 8 7 9 10 7 11 14 14 15 14 12 9 10 9 7 10 7 6 7 8 8 7 8 7 8 8 8 7 7 8 8 8 nan
nan 12 17 8 14 9 6 7 7 11 7 10 7 6 8 13 18 19 12 12 13 13 14 12 11 7 9 9 6 6 7 8 7 7 7 8 7 7 9 8 8 9 9 nan
nan 8 7 4 11 8 11 10 8 9 8 12 8 4 9 12 14 10 11 11 12 11 11 10 10 10 8 9 8 7 6 7 9 6 7 9 8 7 8 9 8 8 8 nan
nan 13 5 11 10 8 14 5 6 11 14 6 9 12 8 6 10 10 8 6 5 10 12 12 11 11 10 9 8 8 10 8 7 6 6 9 8 7 9 10 8 8 8 nan
nan 12 8 15 11 7 6 8 11 15 8 10 9 11 13 8 8 10 7 12 9 6 13 12 10 12 10 9 10 9 8 9 9 8 7 8 9 8 9 8 10 9 8 nan
nan 10 13 8 5 11 13 13 11 7 9 11 9 6 12 13 12 12 11 11 9 8 11 14 12 11 12 8 8 8 7 9 9 9 8 7 8 9 8 8 9 9 8 nan
nan 10 8 11 11 10 8 10 11 7 15 12 5 7 5 10 13 7 12 12 9 10 12 17 15 10 9 9 10 10 7 8 10 10 9 7 8 9 8 8 9 9 9 nan
nan 11 13 8 3 4 1 6 9 9 8 13 3 5 4 12 12 10 11 10 10 11 14 13 12 11 9 10 8 5 11 10 9 10 9 9 8 8 8 9 9 9 9 nan
nan 9 10 8 8 7 9 6 6 8 7 7 10 10 8 7 12 16 11 13 10 10 11 11 10 9 10 14 12 7 7 10 8 9 8 8 8 9 9 9 9 10 10 nan
nan 10 9 12 15 7 6 12 16 13 11 8 11 10 8 7 14 15 14 12 10 11 10 10 10 10 10 10 9 11 11 11 7 7 8 8 9 9 8 9 10 8 7 nan
nan 11 9 11 7 8 17 20 12 12 13 12 12 5 2 13 14 15 14 12 11 13 11 14 13 9 8 10 10 12 7 7 9 8 11 10 9 9 10 10 11 8 10 nan
nan 10 7 12 13 9 6 6 13 10 3 8 8 6 9 9 12 17 21 13 9 12 13 13 14 12 11 12 9 10 16 12 8 8 8 9 11 10 10 11 9 9 12 nan
nan 7 10 15 7 4 12 12 14 6 2 6 7 8 9 12 23 15 15 14 13 10 14 14 13 9 13 13 12 11 10 9 10 10 9 10 8 10 11 8 9 13 11 nan
nan 10 13 9 9 9 7 2 7 18 13 8 9 7 7 16 17 3 -0 15 17 11 12 13 11 11 12 12 13 9 9 9 9 11 10 10 10 10 10 12 9 9 12 nan
nan 13 12 10 7 6 5 11 22 16 7 7 8 8 8 13 3 -1 6 16 13 10 17 18 14 13 9 10 10 9 10 11 10 10 12 11 10 10 10 10 11 10 10 nan
nan 9 9 11 10 7 5 15 15 8 9 10 9 9 8 6 5 15 17 9 10 11 18 20 13 10 13 12 9 10 8 9 13 12 11 10 9 10 12 10 9 11 10 nan
nan 12 11 11 7 11 9 6 4 10 7 9 8 8 7 8 9 11 14 11 8 9 11 20 17 12 14 10 9 7 11 11 9 10 11 10 11 11 10 10 9 9 10 nan
nan 12 7 7 10 4 2 13 14 10 7 6 8 5 8 7 5 11 11 12 8 10 10 13 20 13 8 12 11 12 11 10 11 9 9 10 10 9 9 10 11 9 9 nan
nan 7 12 5 5 8 9 15 10 12 12 8 9 9 7 8 8 10 6 12 13 8 11 10 10 17 13 10 12 14 12 9 8 10 10 10 11 10 8 8 11 12 11 nan
nan nan nan nan nan nan nan nan nan nan nan nan nan nan nan nan nan nan nan nan nan nan nan nan nan nan nan nan nan nan nan nan nan nan nan nan nan nan nan nan nan nan nan nan
CAPE
0 0 0 0 0 0 0 0 0 0 0 434 700 669 500 617 232 175 173 35 65 9 12 72 169 143 89 126 79 79 74 16 0 0 0 0 12 3 0 2 53 63 8 64
0 0 0 0 0 0 0 0 0 0 337 451 483 691 481 621 529 467 238 29 3 11 0 57 231 161 138 123 61 18 28 0 0 0 0 0 3 0 2 0 94 5 0 84
0 0 0 0 0 0 0 0 0 0 0 485 65 31 385 536 402 468 296 31 2 6 0 8 88 143 331 128 43 0 0 0 0 0 0 0 5 0 0 11 20 58 22 31
0 0 0 0 0 0 0 0 0 0 0 8 19 77 0 341 377 325 210 111 8 15 0 36 64 212 391 278 102 8 6 0 0 0 3 0 4 0 0 9 75 28 44 233
0 0 0 0 0 0 0 0 0 0 0 0 0 0 0 6 308 425 148 0 54 1 0 78 109 281 437 417 298 40 14 0 0 0 0 0 0 0 0 0 84 42 108 184
0 0 0 0 0 0 0 0 0 0 0 0 0 0 0 0 143 370 431 40 0 43 0 39 113 130 403 499 461 127 18 0 0 0 0 0 0 0 0 0 2 54 245 400
0 0 0 0 0 0 0 0 0 0 0 0 0 0 0 0 0 64 180 67 69 141 75 44 174 117 359 480 530 237 55 4 0 0 0 0 0 0 0 0 0 5 270 460
0 0 0 0 0 0 0 0 0 0 0 0 0 0 0 0 0 0 45 60 210 129 17 43 146 197 348 560 472 303 42 18 0 0 0 0 0 0 0 11 23 27 150 478
0 0 0 0 0 0 0 0 0 0 0 0 0 0 0 0 8 35 1 44 52 56 17 73 82 170 309 666 549 328 60 32 73 20 27 21 47 3 60 44 0 62 88 382
0 0 0 0 0 0 0 0 0 0 0 0 0 0 0 4 63 11 1 69 148 46 58 154 106 272 346 604 654 396 137 77 106 422 99 79 156 290 368 35 0 20 279 414
0 0 0 0 0 0 0 0 0 0 0 0 0 0 0 0 39 67 59 1 133 38 51 42 221 174 466 465 714 560 277 152 137 588 502 185 131 166 232 393 4 9 174 243
0 0 0 0 0 0 0 0 0 0 0 0 0 0 0 0 0 87 97 28 36 0 25 59 278 173 513 464 630 677 654 510 414 445 599 462 357 329 416 384 575 399 89 1
0 0 0 0 0 0 0 0 0 0 0 0 0 0 0 21 10 68 177 236 117 18 82 108 280 234 500 522 595 687 763 747 733 649 744 731 754 636 490 474 438 421 181 1
0 0 0 0 0 0 26 40 0 0 0 0 0 0 0 0 30 50 79 94 42 1 239 255 361 315 466 609 623 661 793 898 870 834 766 754 751 764 789 635 613 558 406 352
0 0 0 0 0 0 46 69 56 14 0 0 0 0 0 0 0 0 8 0 0 0 126 277 262 333 318 696 789 737 823 925 905 888 888 747 681 677 733 739 760 774 774 725
0 0 0 0 0 0 0 0 3 37 16 0 0 0 0 0 0 110 85 0 0 0 7 123 342 310 356 860 887 921 1058 976 865 856 1069 953 775 924 905 955 948 805 724 698
0 0 0 0 0 0 0 0 72 10 2 0 10 0 460 156 12 7 78 62 0 0 28 100 224 295 386 919 943 1171 1143 1082 1066 951 1135 1346 1239 1176 988 890 933 873 835 804
0 0 0 0 0 0 0 0 0 127 906 728 618 701 492 163 76 59 37 111 96 97 423 210 346 345 484 926 1056 1166 1346 1359 1329 1204 1092 1120 1538 1442 1148 884 1066 699 796 757
0 0 0 0 0 0 0 0 0 0 95 472 295 213 79 13 81 123 245 61 283 571 656 543 524 488 380 729 1045 1244 1377 1367 1364 1402 1259 1245 1374 1399 1232 1022 1044 589 864 944
0 0 0 0 0 0 0 52 55 76 1 274 114 1 0 11 233 170 7 41 263 524 752 857 817 738 550 586 1238 1314 1254 1169 1166 1197 1430 1456 1258 1339 1365 1058 585 782 902 954
0 0 0 0 0 0 6 0 184 129 0 158 79 0 0 0 0 0 0 138 171 372 648 1346 1250 1193 934 989 1274 1281 1269 1316 1242 1127 1513 1597 1464 1281 1295 1143 974 980 970 697
0 0 0 0 0 0 0 4 358 115 69 144 70 0 0 0 0 28 43 224 226 403 452 1374 1636 1500 1427 1329 1328 1330 1392 1271 1270 1485 1658 1779 1385 1550 1384 1360 951 831 549 345
0 1 15 6 0 0 0 14 11 281 81 190 93 3 0 0 0 0 180 97 19 39 206 703 1564 1363 1534 1400 1325 1345 1264 1439 1514 1591 1688 1734 1595 1757 1424 1154 660 443 296 224
0 0 24 11 0 12 1 0 11 420 416 120 149 38 0 0 0 0 0 61 0 0 65 218 1512 1493 1593 1437 1444 1450 1429 1512 1592 1554 1483 1267 1413 1277 703 481 292 227 96 31
0 0 0 0 0 0 1 77 29 231 538 226 49 5 10 0 0 0 0 0 9 0 79 167 326 1475 1676 1560 1558 1726 1739 1685 1552 1254 972 737 640 753 493 181 84 171 45 62
0 0 0 0 0 1 1 18 0 21 280 247 117 11 0 14 0 0 0 0 5 0 18 77 142 563 1548 1592 1633 1592 1462 1402 1136 958 646 493 304 262 383 278 3 0 1 0